Other Public Products
Issued by NWS Grand Forks, ND

Home | Current Version | Previous Version | Text Only | Print | Product List | Glossary On
Versions: 1 2 3 4 5 6 7 8 9 10 11 12 13 14 15 16 17 18 19 20 21 22 23 24 25 26 27 28 29 30 31 32 33 34 35 36 37 38 39 40 41 42 43 44 45 46 47 48 49 50
000
FPUS83 KFGF 290410
OPUFGF
PRAIRIE TO PINES WEATHER ROUNDUP
NATIONAL WEATHER SERVICE EASTERN NORTH DAKOTA/GRAND FORKS ND
1100 PM CDT SUN AUG 28 2016

 **SATELLITE DATA USED TO AUGMENT SKY COVER AT AUTOMATED STATIONS**
 *****  WEATHER ACROSS EASTERN NORTH DAKOTA  *****

CITY           SKY/WX    TMP DP  RH WIND       PRES   REMARKS
GRAND FORKS    CLOUDY    72  61  68 SE14      29.94R
GRAND FORKS AF CLOUDY    72  63  74 SE10      29.95R
GRAND CITY NWS   N/A     70 N/A N/A SE10        N/A
BUXTON           N/A     73  67  81 E12G23      N/A
DEVILS LAKE    FOG       70  70 100 E3        29.97R VSB 1/2
FARGO          CLOUDY    80  73  79 S14       29.94S
WAHPETON ARPT  PTCLDY    77  70  78 SE13      29.99R
$$

 *****  WEATHER ACROSS CENTRAL AND WESTERN NORTH DAKOTA  *****

CITY           SKY/WX    TMP DP  RH WIND       PRES   REMARKS
JAMESTOWN      CLEAR     73  69  87 S5        29.95R
BISMARCK       CLEAR     70  60  70 N3        29.98R
MINOT          CLEAR     69  54  58 NW9       30.05R
MINOT AFB      CLEAR     68  55  62 N8        30.05R
GARRISON         N/A     67  54  63 N12       30.05R
WILLISTON      CLEAR     69  49  48 N7        30.09R
DICKINSON      CLOUDY    73  45  36 NE12      30.07R
HETTINGER      CLEAR     76  46  34 N14       30.08R
$$

 *****  OTHER OBSERVATIONS NORTHEAST NORTH DAKOTA  *****

CITY           SKY/WX    TMP DP  RH WIND       PRES   REMARKS
WALHALLA       NOT AVBL
LANGDON        FAIR      70  68  94 E5G13     30.01R
CAVALIER       MOCLDY    72  66  83 E7        29.97R
GRAFTON        FAIR      72  70  94 E12       29.97S
CANDO          NOT AVBL
FORT TOTTEN      N/A     72  69  89 SE2       29.95S
ROLLA          MOCLDY    66  61  82 N6        30.03R
RUGBY          FAIR      68  66  94 NW14      29.99R
 ***** THE ABOVE OBSERVATIONS ARE NON NWS ARE NOT QUALITY
        CONTROLLED AND MAY MIS-REPORT RAIN FOR SNOW...
$$

 *****  OTHER OBSERVATIONS SOUTHEAST NORTH DAKOTA *****

CITY           SKY/WX    TMP DP  RH WIND       PRES   REMARKS
COOPERSTOWN    NOT AVBL
VALLEY CITY    FAIR      75  75 100 S10       29.97R
OAKES            N/A    N/A N/A N/A MISG        N/A
GWINNER        FAIR      77  72  83 S10       29.97R
SHEYENNE NWR     N/A     77  71  82 S6        29.95S
BUFFALO          N/A     76  71  85 S8          N/A
WYNDMERE       NOT AVBL
 ***** THE ABOVE OBSERVATIONS ARE NON NWS ARE NOT QUALITY
       CONTROLLED AND MAY MIS-REPORT RAIN FOR SNOW...
$$

  *****  WEATHER ACROSS NORTHERN MINNESOTA  *****

CITY           SKY/WX    TMP DP  RH WIND       PRES   REMARKS
FLAG ISLAND    CLOUDY    66  63  88 CALM      30.01F
WARROAD        CLOUDY    64  61  88 E6        30.03R
ROSEAU         CLOUDY    70  64  83 SE10      29.99F
HALLOCK        CLOUDY    72  66  83 E8        29.97S
THF RVR FALLS  CLOUDY    70  66  88 E5        29.99R
HALSTAD          N/A     73  61  65 E22G38      N/A
FOSSTON        TSTM      68  63  83 S25G33    30.00F
BAUDETTE       CLOUDY    62  59  90 VRB6      30.04S
WASKISH        TSTM      66  61  82 E15G28    30.05S
CROOKSTON      CLOUDY    70  63  78 SE13      29.95F THUNDER
$$
  *****  WEATHER ACROSS CENTRAL AND WEST MINNESOTA  *****

CITY           SKY/WX    TMP DP  RH WIND       PRES   REMARKS
BEMIDJI        CLOUDY    72  68  89 SE12      30.02F
PARK RAPIDS    CLOUDY    76  69  79 SE14      30.05F
WADENA         NOT AVBL
DETROIT LAKES  CLOUDY    77  70  78 S14G21    30.02F
MOORHEAD       CLOUDY    79  73  83 S15       29.96F
FERGUS FALLS   CLOUDY    75  73  94 S14       30.02S
ELBOW LAKE     FAIR      75  72  91 SE14G21   30.04R
MORRIS MN      CLEAR     75  72  88 SE9       30.03R
STAPLES        CLOUDY    72  66  83 SE7       30.08F
WHEATON        PTCLDY    79  73  83 SE12G17   30.02R
$$
  *****  WEATHER ELSEWHERE ACROSS MINNESOTA  *****

CITY           SKY/WX    TMP DP  RH WIND       PRES   REMARKS
DULUTH         PTCLDY    63  62  97 SE7       30.17S
INTRNTL FALLS  LGT RAIN  65  63  93 SE17G23   30.04F
ELY            MOCLDY    64  61  88 SE9       30.15F
CLOQUET        CLOUDY    64  61  88 E5        30.16F FOG
BRAINERD       CLEAR     71  68  90 SE6       30.10S
HIBBING        CLOUDY    64  61  90 SE10      30.12F
ALEXANDRIA     CLOUDY    74  69  85 SE9       30.09R
SAINT CLOUD    CLOUDY    72  70  93 SE7       30.11R
MINNEAPOLIS    PTCLDY    74  67  78 SE8       30.13R
$$

  *****  WEATHER ACROSS SOUTH DAKOTA  *****

CITY           SKY/WX    TMP DP  RH WIND       PRES   REMARKS
SIOUX FALLS    PTCLDY    79  65  62 S14       30.09S
BROOKINGS        N/A    N/A N/A N/A MISG        N/A
WATERTOWN      CLEAR     75  70  84 S13       30.05R
HURON          CLEAR     78  67  68 S14G23    30.01R
SISSETON         N/A     75  72  90 S13       29.98R
ABERDEEN       PTCLDY    79  67  66 S14       29.98R
MITCHELL       CLEAR     79  71  76 S18G25    30.05R
PIERRE         CLEAR     77  60  55 S9        29.97R
MOBRIDGE       CLEAR     79  59  50 E9        29.95R
RAPID CITY     CLEAR     69  50  50 N5        30.06R
$$

  *****  SOME WEATHER IN NEARBY STATES *****

CITY           SKY/WX    TMP DP  RH WIND       PRES   REMARKS
GLASGOW MT     CLOUDY    66  48  52 N10G17    30.14R
GREAT FALLS MT CLOUDY    62  44  51 NE12      30.20R
CHEYENNE WY    CLOUDY    64  46  52 SW9       30.31R
SCOTTSBLUFF NE PTCLDY    65  55  70 E5        30.14R
OMAHA NE       MOCLDY    72  66  81 SE8       30.12R
DES MOINES IA  CLOUDY    75  67  76 E7        30.15R
DAVENPORT IA   LGT RAIN  71  69  93 SE6       30.18R
CHICAGO IL     MOCLDY    73  68  84 E6        30.22R
EAU CLAIRE WI  CLEAR     70  66  87 S3        30.16S
LA CROSSE WI   CLOUDY    73  70  90 E6        30.16S
$$

  *****  SOME NATIONAL WEATHER *****

CITY           SKY/WX    TMP DP  RH WIND       PRES   REMARKS
LA GUARDIA NY  PTCLDY    78  68  71 SW7       30.17R
RALEIGH NC     CLOUDY    79  69  71 E7        30.15R
ATLANTA GA     PTCLDY    81  68  64 E13       30.12S
NEW ORLEANS LA CLOUDY    82  74  76 E6        29.99R
OKLAHOMA CITY  PTCLDY    74  67  78 SE5       30.10R
ALBUQUERQUE NM PTCLDY    71  42  35 CALM      30.24R
SALT LAKE CITY CLEAR     77  33  20 S6        30.15R
LOS ANGELES CA CLEAR     69  60  73 SW9       29.95R
BOISE ID       CLEAR     76  40  27 E5        30.05R
SEATTLE WA     MOCLDY    62  52  69 N6        30.05S
$$

*** WEATHER ACROSS MANITOBA...SASKATCHEWAN AND ONTARIO ***
                ***ONTARIO***

CITY           SKY/WX    TMP DP  RH WIND       PRES   REMARKS
GERALDTON      CLEAR     57  55  94 CALM      30.21R
THUNDER BAY    CLEAR     57  57 100 CALM      30.21R
SIOUX LOOKOUT  MOCLDY    59  57  94 SE2       30.11F
TORONTO        CLEAR     70  61  73 NW9       30.19R
BIG TROUT LK   CLEAR     66  57  72 S7        30.07S
PICKLE LAKE    NOT AVBL
DRYDEN         CLEAR     64  59  82 SE7       30.09F
KENORA         PTCLDY    66  63  88 SE10      30.05F
$$
                *** MANITOBA***

CITY           SKY/WX    TMP DP  RH WIND       PRES   REMARKS
BRANDON        MOCLDY    61  59  94 W9        30.02R
DAUPHIN        CLEAR     59  55  88 W7        29.98R
ISLAND LAKE    NOT AVBL
PILOT MOUND      N/A     64  59  82 S15         N/A
THE PAS        PTCLDY    59  50  72 W15G25    29.93R
THOMPSON       MOCLDY    64  57  77 SE7       29.82F
WINNIPEG       LGT RAIN  72  64  78 SE12G18   29.95S
LYNN LAKE      CLOUDY    55  52  88 MISG      29.80R
CHURCHILL      CLOUDY    48  48 100 E14       29.96F
GILLAM         LGT RAIN  68  57  68 S7        29.90F
$$
                ***SASKATCHEWAN***

CITY           SKY/WX    TMP DP  RH WIND       PRES   REMARKS
ESTEVAN        CLEAR     59  50  72 NW12      30.10R
KINDERSLEY     CLEAR     45  43  93 SE3       30.21R
LLOYDMINSTER   PTCLDY    41  37  87 W8        30.17R
PRINCE ALBERT  MOCLDY    52  43  71 W8        30.11R
REGINA         PTCLDY    52  45  76 NW12      30.15R
YORKTON        CLEAR     57  48  72 W13       30.07R  C1F1C2F2C3F3C4F4C5F5C6F6C7F7C8F8C9F9CaFaCbFbCcFcCdFdCe!



USA.gov is the U.S. government's official web portal to all federal, state and local government web resources and services.